Starlink 31907

operational
NORAD ID: 59797 Int'l Des: 2024-093 Owner: SPXS Country: US Constellation: starlink
LEOCIRCULAR

About Starlink 31907

Description loading...

Live Position

Loading 3D Globe...

Upcoming Passes

Altitude History

Altitude vs Time

uPlot chart will show altitude changes over time

Two-Line Element Set

1 59797U 24093R 25260.01463245 .00000284 00000-0 19854-4 0 9990
2 59797 43.0015 109.7576 0001411 280.4636 79.6057 15.27567192 76139
Epoch: Sep 17, 2025 • Age: 32 hours

Current Status

Altitude 485.1 km
Velocity 7.63 km/s
Sub-Earth Point 34.71°N, 32.72°E
Launch Date May 18, 2024
Age 1.3 years
Type internet

Technical Details

Classification Payload
Mass 730.00 kg
Dry Mass 700.00 kg
Total Mass 730.00 kg
Length 0.30 m
Diameter 4.10 m
Span 29.00 m
Shape Box + pan
Manufacturer SPXS
Bus Type Starlink V2M
Phase Status In Orbit
Owner/State SPXS/US

Large Constellations

Loading constellations...